Terminal Aerodrome Forecast
Issued by NWS Shreveport, LA

Home | Current Version | Previous Version | Text Only | Print | Product List | Glossary On
Versions: 1 2 3 4 5 6 7 8 9 10 11 12 13 14
000
FTUS44 KSHV 051817 RRA
TAFELD
TAF
KELD 051817Z 0518/0618 12014G18KT P6SM SKC
     FM060000 14006KT P6SM FEW050 SCT100 BKN250
      TEMPO 0610/0612 5SM BR=

USA.gov is the U.S. government's official web portal to all federal, state and local government web resources and services.